Погода в Сумском Посаде

Россия / Республика Карелия     64°14′24″N   35°24′30″E
темп.,
°C
ветер,
м/с
пор.,
м/с
влажн.,
%
обл.,
%
осадки,
мм/ч
давл.,
гПа
погр.,
м
25 июня, сб
сб2500:00+15вюв11659 0.0 101511
03:00+14юв227098 0.0 101611
06:00+15вюв2463100 0.0 1017101
09:00+20вюв34462 0.0 1018441
12:00+23вюв32400 0.0 10181026
15:00+24всв33413 0.0 10181507
18:00+22в454491 0.0 1018490
21:00+17в24594 0.0 101994
26 июня, вс
вс2600:00+15юв24615 0.0 102058
03:00+15юв2558100 0.0 1020103
06:00+16ююв2760100 0.0 1019154
09:00+21ююз36635 0.0 1017319
12:00+27зсз464381 0.0 10161898
15:00+27с474118 0.0 10151577
18:00+24ссв245316 0.0 1016311
21:00+13с511855 0.0 1019237
27 июня, пн
пн2700:00+10ссв5983100 0.0 1022368
03:00+7св498524 0.0 1025463
06:00+8св4675100 0.0 1026463
09:00+10св3564100 0.0 1027602
12:00+12ссв445829 0.0 1028703
15:00+13ссв44565 0.0 1028596
18:00+12ссв34590 0.0 1029389
21:00+9св127793 0.0 1029114
28 июня, вт
вт2800:00+7вюв26800 0.0 1030128
03:00+5вюв26880 0.0 1032118
06:00+9вюв24690 0.0 1032306
09:00+13всв23530 0.0 1032633
12:00+15св33440 0.0 1032761
15:00+16св32400 0.0 1031693
18:00+16всв22420 0.0 1030519
21:00+13вюв23630 0.0 102960
29 июня, ср
ср2900:00+8ю22640 0.0 102932
03:00+8ююз22615 0.0 102927
06:00+12юз245236 0.0 1028126
09:00+19зюз34365 0.0 1027548
12:00+24з34295 0.0 10251046
15:00+26зсз24327 0.0 10231492
18:00+26з343522 0.0 10221580
21:00+22юз35575 0.0 102188